User: anonymous   Login
Location: Bazinghen
(50.8246°N, 1.6616°E)
Time: 00:02:23
(UTC+00:00)
Language:

STARLINK-1239 - Orbit

View from above orbital plane
View from above orbital plane
View from above satellite
View from above satellite

Ground track
Ground track

The orbit data is extracted from the following two-line orbital elements,

1 45193U 20012R   20188.83334491 -.00019280  00000-0 -13071-2 0  9997
2 45193  53.0012 347.5413 0001470 104.4573 166.8776 15.05594925 21647
Epoch (UTC): 06 July 2020 20:00:01
Eccentricity: 0.0001470
inclination: 53.0012°
perigee height: 548 km
apogee height: 551 km
right ascension of ascending node: 347.5413°
argument of perigee: 104.4573°
revolutions per day: 15.05594925
mean anomaly at epoch: 166.8776°
orbit number at epoch: 2164

The dashed part of the orbit path shows where the satellite is in the earth's shadow,  

DLR